Aérodrome :
LOGIN :

S'inscrire | Disclaimer

   EN    FR    IT 

 










Légende :    VFR   VFR Marginal   IFR   IFR Intensif   IFR Très Intensif
Visi : 
Plafond : 
>= 8 km
>= 3000ft
5 à 8 km
1000 à 3000 ft
1500m à 5 km
500 à 1000 ft
800 à 1500m
200 à 500 ft
< 800m
< 200 ft
Symboles :   Orages  Brouillard  Fortes neiges  Fortes précipitations  Vent > 20 kt
SIGMETs :   Divers  Orages  Givrage  Turbulence  Onde Orograph.  Cendres Volcan.






- Altitude de l'aérodrome : 21 ft
- Code IATA : VST


ESOW - Stockholm Västerås

DERNIER METAR :
  • 031720Z AUTO 10007KT 9999 OVC034/// 03/M01 Q1008

METARs EXPIRÉS :
  • 031650Z AUTO 09005KT 060V130 9999 SCT021/// BKN025/// OVC033/// 03/M01 Q1008
  • 031620Z AUTO 09004KT 060V120 9999 BKN022/// OVC027/// 03/M01 Q1008
  • 031550Z 12005KT 9999 FEW015 BKN028 02/M01 Q1008 R19/29//95
  • 031520Z 14008KT 9999 FEW015 BKN030 02/M00 Q1009 R19/29//95
  • 031450Z 12005KT 9999 BKN013 02/M00 Q1009 R19/29//95

Prévision TAF périmée.



MET'MAP, la Météo Aéronautique d'un coup d'oeil ! - Copyright ORBIFLY Décembre 2007 - Disclaimer

ORBIFLY MET'MAP TEAM :

Programmation & Développement : Alexandra Zaïnal
Sur une idée originale de : Baudouin d'Aumeries
Assistance à la programmation : Marc-Olivier Méhu
Soutien technique & logistique : Manuel Goepfert

Contact : metmap@orbifly.com




SOURCES & CREDITS :

   NOAA